Flag for India Weather past 2 weeks in Jalandhar, Punjab, India

77 °F

Passing clouds.

Feels Like: 78 °F
Forecast: 52 / 76 °F
Wind: 9 mph from Northwest

Location: Lahore Airport

Current Time: Nov 25, 2015 at 2:34:40 PM

Latest Report: Nov 25, 2015 at 1:55 PM

Visibility: 5 mi

Pressure: 29.98 "Hg

Humidity: 32%

Dew point: 45 °F

Location of JalandharLocation

Historic Weather in Jalandhar — Graph


Jalandhar temperature yesterday

Maximum temperature yesterday: 77 °F (at 3:25 PM)
Minimum temperature yesterday: 52 °F (at 6:25 AM)
Average temperature yesterday: 64 °F

Past Weeks' High & Low Weather Summary

High82 °F (Nov 15, 2:55 PM)94% (Nov 18, 8:00 AM)30.15 "Hg (Nov 18, 8:00 AM)
Low52 °F (Nov 18, 8:00 AM)23% (Nov 19, 3:25 PM)29.89 "Hg (Nov 14, 2:55 PM)
Average68 °F59%30.01 "Hg
* Reported Nov 10 12:55 PM — Nov 25 1:25 PM, Jalandhar, Weather by CustomWeather, © 2015

Note: Actual official high and low records may vary slightly from our data, if they occured in-between our weather recording intervals... More about our weather records


Jalandhar weather history for previous 24 hours

Time TempWeatherWind HumidityBarometerVisibility
1:25 PM
Wed, Nov 25
75 °FScattered clouds.7 mph34%30.01 "Hg4 mi
12:25 PM72 °FScattered clouds.10 mph41%30.04 "Hg3 mi
11:55 AM70 °FScattered clouds.12 mph43%30.04 "Hg3 mi
11:25 AM68 °FScattered clouds.7 mph46%30.04 "Hg2 mi
10:25 AM63 °FScattered clouds.6 mph59%30.07 "Hg1 mi
9:30 AM57 °FScattered clouds.3 mph63%30.04 "Hg1 mi
9:00 AM55 °FScattered clouds.5 mph67%30.04 "Hg1 mi
8:25 AM54 °FScattered clouds.No wind72%30.04 "Hg1 mi
8:00 AM52 °FFog.No wind77%30.04 "Hg1 mi
7:30 AM52 °FFog.3 mph77%30.04 "Hg1 mi
6:55 AM52 °FFog.3 mph88%30.04 "Hg1 mi
6:25 AM54 °FFog.3 mph82%30.01 "Hg1 mi
6:00 AM54 °FFog.3 mph82%30.01 "Hg2 mi
5:25 AM55 °FClear.3 mph77%30.04 "Hg2 mi
4:55 AM55 °FClear.No wind82%30.04 "Hg2 mi
3:55 AM57 °FClear.No wind82%30.04 "Hg2 mi
3:25 AM59 °FClear.3 mph77%30.04 "Hg2 mi
2:55 AM59 °FClear.No wind72%30.04 "Hg2 mi
2:25 AM59 °FClear.3 mph72%30.04 "Hg2 mi
1:55 AM59 °FClear.No wind72%30.04 "Hg2 mi
1:25 AM59 °FClear.5 mph72%30.04 "Hg2 mi
12:55 AM61 °FPassing clouds.5 mph72%30.04 "Hg2 mi
12:25 AM61 °FPassing clouds.6 mph68%30.07 "Hg2 mi
11:55 PM
Tue, Nov 24
63 °FPassing clouds.5 mph68%30.07 "Hg2 mi
11:25 PM63 °FPassing clouds.5 mph68%30.07 "Hg2 mi
10:55 PM64 °FPassing clouds.No wind64%30.07 "Hg2 mi
10:25 PM64 °FPassing clouds.3 mph64%30.07 "Hg2 mi
9:55 PM64 °FPassing clouds.5 mph64%30.04 "Hg2 mi
9:25 PM66 °FPassing clouds.5 mph60%30.04 "Hg2 mi
8:55 PM66 °FPassing clouds.6 mph60%30.04 "Hg2 mi
8:30 PM66 °FPassing clouds.6 mph60%30.04 "Hg2 mi
8:00 PM68 °FPassing clouds.5 mph56%30.04 "Hg2 mi
7:30 PM70 °FPassing clouds.3 mph50%30.04 "Hg2 mi
7:00 PM70 °FPassing clouds.6 mph50%30.04 "Hg2 mi
6:30 PM72 °FHaze.7 mph47%30.04 "Hg2 mi
6:00 PM72 °FPassing clouds.6 mph44%30.01 "Hg2 mi
5:30 PM73 °FPassing clouds.6 mph41%30.01 "Hg2 mi
5:00 PM75 °FScattered clouds.6 mph39%30.01 "Hg2 mi
4:30 PM75 °FScattered clouds.5 mph39%30.01 "Hg2 mi
4:00 PM77 °FScattered clouds.8 mph36%30.01 "Hg2 mi
3:25 PM77 °FScattered clouds.9 mph36%30.04 "Hg2 mi
2:55 PM75 °FScattered clouds.9 mph39%30.04 "Hg2 mi
2:25 PM75 °FScattered clouds.7 mph39%30.04 "Hg2 mi
Weather by CustomWeather, © 2015

See weather overviewHow to use our weather pages